[[{"header":{"parameterUnit":"m.s-1","parameterCategory":1,"la1":30.2991,"la2":30.254,"lo1":-89.0895,"lo2":-89.0444,"dy":0.0017,"dx":0.0017,"nx":28,"ny":28,"refTime":"2025-01-02T09:00:00:Z","depth":0,"parameterNumber":2,"parameterNumberName":"U-component_of_WINDS"},"data":[0,0,0,0,0,0,0,0,0,0,0,0,0,0,0,0,0,0,0,0,0,0,0,0,0,0,0,0,0,0,0,0,0,0,0,0,0,0,0,0,0,0,0,0,0,0,0,0,0,0,0,0,0,0,0,0,0,0,-2.979,-2.9791,0,-2.9873,-2.9874,-2.9874,-2.9837,-2.9835,-2.9833,-2.9831,-2.9913,-2.9917,-2.9922,0,0,0,0,0,0,0,0,0,0,0,0,0,-2.9597,-2.9601,-2.979,-2.9791,-2.9792,-2.9872,-2.9874,-2.9875,-2.9837,-2.9835,-2.9832,-2.983,-2.9912,-2.9917,-2.9922,0,0,0,0,0,0,0,0,0,0,0,0,0,-2.968,-2.9602,-2.979,-2.9783,-2.9783,-2.9872,-2.9874,-2.9875,-2.9838,-2.9835,-2.9832,-2.9829,-2.991,-2.9916,-2.9923,-3.0022,0,0,-2.9941,-2.9944,0,0,0,0,0,0,0,0,-2.9676,-2.9688,-2.9783,-2.9783,-2.9784,-2.9841,-2.9836,-2.9924,-2.9839,-2.9817,-2.9831,-2.9827,-2.9892,-2.9899,-2.9922,-3.0026,-3.003,-2.9942,-2.9946,-2.9948,-2.995,0,0,0,0,0,0,0,-2.967,-2.9684,-2.9822,-2.9784,-2.9785,-2.9775,-2.9784,-2.9853,-2.9871,-2.9819,-2.9816,-2.9826,-2.9891,-2.9916,-2.9923,-3.0031,-2.9942,-2.9947,-2.9951,-2.9954,-3.0221,-3.0224,0,0,0,0,0,0,-2.9665,-2.9679,-2.982,-2.9825,-2.9721,-2.9781,-2.979,-2.9826,-2.987,-2.9873,-2.9829,-2.9824,-2.9907,-2.9916,-2.9926,-3.0044,-2.9948,-2.9954,-2.9958,-3.0217,-3.0221,-3.0225,0,0,0,0,0,0,-2.9661,-2.9678,-2.9816,-2.9751,-2.9768,-2.9788,-2.9828,-2.9829,-2.9853,-2.9878,-2.988,-2.9851,-2.9905,-2.9917,-2.9999,-3.0047,-2.9957,-2.9963,-3.0213,-3.0219,-3.0223,-3.0283,0,0,0,0,0,0,-2.9655,-2.9676,-2.9715,-2.9753,-2.9772,-2.9888,-2.9831,-2.9833,-2.9864,-2.9859,-2.9899,-2.9902,-2.9903,-2.999,-3.0005,-3.0054,-2.9967,-3.0209,-3.0216,-3.0222,-3.0277,-3.0289,-3.03,0,0,0,0,0,-2.9649,-2.9728,-2.9717,-2.9734,-2.9821,-2.9891,-2.9902,-2.9902,-2.9868,-2.9907,-2.9923,-2.9901,-3.004,-2.9998,-3.0015,-3.0066,-3.0206,-3.0214,-3.0221,-3.0271,-3.0287,-3.03,0,0,0,0,0,0,-2.9695,-2.9733,-2.9721,-2.9815,-2.9851,-2.9885,-2.9933,-2.9919,-2.9964,-2.9957,-2.9955,-2.9964,-3.0048,-3.0066,-3.0019,-3.0165,-3.0117,-3.0129,-3.015,-3.0165,-3.0177,-3.0169,-2.9972,0,0,0,0,0,-2.9716,-2.9771,-2.9801,-2.9882,-2.99,-2.9914,-2.9945,-2.9942,-2.9978,-2.9992,-3.0014,-3.0049,-3.01,-3.0134,-3.0183,-3.028,-3.0287,-3.0324,-3.0336,-3.0345,-3.0354,-3.0406,-3.0422,-3.025,-3.025,-3.025,0,0,-2.976,-2.9788,-2.9823,-2.9892,-2.9918,-2.9974,-2.9926,-2.9988,-3.0029,-3.0001,-3.0079,-3.0096,-3.0135,-3.0225,-3.0265,-3.0242,-3.0404,-3.0355,-3.0362,-3.0366,-3.0415,-3.0431,-3.0446,-3.0255,-3.0254,-3.0254,0,0,-2.9869,-2.9897,-2.9966,-2.9994,-3.0035,-3.0044,-3.0061,-3.0098,-3.0108,-3.0187,-3.0167,-3.0216,-3.0305,-3.0333,-3.0359,-3.0479,-3.046,-3.0495,-3.0556,-3.0606,-3.062,-3.0632,-3.0673,-3.0688,-3.0505,-3.0505,-3.0505,0,-2.9918,-3.0002,-3.0003,-3.0066,-3.0096,-3.0075,-3.0144,-3.0171,-3.0227,-3.0248,-3.0221,-3.0332,-3.0357,-3.0452,-3.0482,-3.0504,-3.0522,-3.049,-3.0618,-3.063,-3.0641,-3.068,-3.0696,-3.0509,-3.0508,-3.0508,-3.0508,0,-3.006,-3.0119,-3.017,-3.0224,-3.026,-3.0326,-3.0336,-3.0373,-3.0367,-3.0379,-3.0458,-3.0488,-3.0541,-3.0564,-3.056,-3.0659,-3.0643,-3.0618,-3.057,-3.0661,-3.0698,-3.0713,-3.0514,-3.0513,-3.0512,-3.0511,0,0,-3.0198,-3.0253,-3.0271,-3.0295,-3.034,-3.0385,-3.045,-3.0503,-3.0534,-3.0573,-3.0626,-3.0703,-3.0679,-3.0709,-3.0707,-3.0752,-3.0843,-3.0721,-3.0721,-3.0741,-3.0952,-3.097,-3.0987,-3.0832,-3.0835,-3.0837,-3.0949,0,-3.0309,-3.0423,-3.0425,-3.0529,-3.0582,-3.0564,-3.062,-3.0653,-3.0666,-3.0713,-3.0726,-3.078,-3.0746,-3.0764,-3.0807,-3.0823,-3.0885,-3.0815,-3.088,-3.0882,-3.0868,-3.1007,-3.1025,-3.1128,-3.0963,-3.0966,-3.0967,0,-3.0452,-3.0496,-3.0606,-3.0642,-3.0665,-3.0715,-3.0764,-3.081,-3.0847,-3.0853,-3.0886,-3.0878,-3.0943,-3.0895,-3.0984,-3.0936,-3.0963,-3.0975,-3.0979,-3.0983,-3.0928,-3.1012,-3.1162,-3.1176,-3.099,-3.0988,-3.0987,0,-3.0539,-3.0626,-3.0703,-3.0724,-3.0769,-3.0805,-3.0825,-3.086,-3.0891,-3.0934,-3.0954,-3.1004,-3.1031,-3.107,-3.1075,-3.1039,-3.1164,-3.1116,-3.1169,-3.1169,-3.1194,-3.1192,-3.1348,-3.1216,-3.1215,-3.1215,-3.1215,0,-3.0661,-3.0728,-3.0742,-3.0789,-3.0864,-3.0866,-3.094,-3.0957,-3.0988,-3.1037,-3.1024,-3.1071,-3.1076,-3.1123,-3.1128,-3.12,-3.1213,-3.1219,-3.1219,-3.1219,-3.1218,-3.1234,-3.1226,-3.1219,-3.1218,-3.1218,-3.1217,0,-3.077,-3.0783,-3.0864,-3.0901,-3.0911,-3.0964,-3.0995,-3.1039,-3.1052,-3.1114,-3.1129,-3.1147,-3.1203,-3.1212,-3.1278,-3.1281,-3.1366,-3.136,-3.1354,-3.1352,-3.1404,-3.1398,-3.1574,-3.1596,-3.1452,-3.1453,-3.1454,0,-3.0845,-3.0897,-3.0939,-3.0971,-3.0993,-3.1046,-3.1078,-3.1083,-3.1117,-3.1163,-3.1202,-3.1256,-3.13,-3.1389,-3.1408,-3.1457,-3.1451,-3.1509,-3.1458,-3.1456,-3.1449,-3.1445,-3.145,-3.1518,-3.152,-3.1521,-3.1522,0,-3.0978,-3.0981,-3.1029,-3.1079,-3.1118,-3.1158,-3.1195,-3.1222,-3.1232,-3.1271,-3.1328,-3.1362,-3.1428,-3.1482,-3.1532,-3.1552,-3.1538,-3.1539,-3.1553,-3.1552,-3.1546,-3.1548,-3.1378,-3.1534,-3.1533,-3.1532,-3.1531,-3.1531,-3.1071,-3.1115,-3.1151,-3.1205,-3.1234,-3.1269,-3.1312,-3.133,-3.1377,-3.1432,-3.1433,-3.1494,-3.153,-3.1595,-3.1619,-3.1667,-3.1648,-3.1669,-3.1674,-3.1679,-3.1683,-3.154,-3.1676,-3.1676,-3.1675,-3.1675,-3.1675,0,-3.12,-3.1223,-3.1272,-3.1325,-3.1367,-3.1352,-3.1393,-3.1429,-3.1483,-3.1518,-3.1561,-3.1626,-3.1678,-3.1702,-3.1753,-3.1787,-3.1782,-3.18,-3.1796,-3.1801,-3.1698,-3.1679,-3.1803,-3.1803,-3.1803,-3.1803,-3.1803,-3.1803,-3.1273,-3.1346,-3.1354,-3.1442,-3.1464,-3.1525,-3.1549,-3.1581,-3.1609,-3.1682,-3.1726,-3.1741,-3.1771,-3.1824,-3.1871,-3.1877,-3.1895,-3.1915,-3.1918,-3.1821,-3.1808,-3.1795,-3.1778,-3.192,-3.192,-3.2016,-3.2017,-3.2018]},{"header":{"parameterUnit":"m.s-1","parameterCategory":1,"la1":30.2991,"la2":30.254,"lo1":-89.0895,"lo2":-89.0444,"dy":0.0017,"dx":0.0017,"nx":28,"ny":28,"refTime":"2025-01-02T09:00:00:Z","depth":0,"parameterNumber":3,"parameterNumberName":"V-component_of_WINDS"},"data":[0,0,0,0,0,0,0,0,0,0,0,0,0,0,0,0,0,0,0,0,0,0,0,0,0,0,0,0,0,0,0,0,0,0,0,0,0,0,0,0,0,0,0,0,0,0,0,0,0,0,0,0,0,0,0,0,0,0,2.9635,2.9637,0,2.9752,2.9753,2.9755,2.974,2.9738,2.9736,2.9734,2.985,2.9855,2.986,0,0,0,0,0,0,0,0,0,0,0,0,0,2.9398,2.9402,2.9635,2.9637,2.9638,2.9752,2.9753,2.9755,2.974,2.9738,2.9736,2.9734,2.9849,2.9855,2.986,0,0,0,0,0,0,0,0,0,0,0,0,0,2.9506,2.9404,2.9635,2.9645,2.9647,2.9751,2.9753,2.9755,2.9741,2.9738,2.9735,2.9732,2.9847,2.9854,2.9861,2.9963,0,0,2.9883,2.9887,0,0,0,0,0,0,0,0,2.95,2.9515,2.9642,2.9644,2.9647,2.9729,2.9712,2.9825,2.9742,2.9705,2.9734,2.9731,2.9812,2.9822,2.985,2.9968,2.9973,2.9884,2.9888,2.9892,2.9894,0,0,0,0,0,0,0,2.9493,2.951,2.9681,2.9644,2.9647,2.9642,2.9655,2.9733,2.9773,2.9708,2.9707,2.9721,2.9813,2.9843,2.9853,2.9975,2.9884,2.989,2.9895,2.9898,3.0182,3.0185,0,0,0,0,0,0,2.9483,2.9504,2.9678,2.9685,2.9565,2.9649,2.9663,2.9705,2.9772,2.9779,2.9724,2.972,2.9832,2.9844,2.9857,2.9979,2.9892,2.9898,2.9903,3.0178,3.0182,3.0186,0,0,0,0,0,0,2.9478,2.9499,2.9673,2.9594,2.9616,2.9656,2.9704,2.9709,2.9739,2.9784,2.979,2.9747,2.983,2.9846,2.9937,2.9983,2.9902,2.9908,3.0175,3.018,3.0184,3.0225,0,0,0,0,0,0,2.9471,2.9497,2.9536,2.9595,2.962,2.9752,2.9707,2.9713,2.9752,2.9749,2.9808,2.9815,2.9829,2.9926,2.9944,2.9991,2.9914,3.0171,3.0177,3.0182,3.022,3.0231,3.024,0,0,0,0,0,2.9463,2.9543,2.9538,2.956,2.9671,2.9755,2.9769,2.9784,2.9756,2.9795,2.9824,2.9813,2.9975,2.9935,2.9955,3.0006,3.0168,3.0175,3.0182,3.0215,3.0229,3.024,0,0,0,0,0,0,2.9487,2.9551,2.9546,2.9648,2.9696,2.9752,2.9802,2.9798,2.9855,2.9849,2.9865,2.9879,2.997,2.9997,2.9951,3.0107,3.0067,3.0079,3.0086,3.0099,3.0109,3.01,2.992,0,0,0,0,0,2.9505,2.9568,2.962,2.9705,2.9729,2.9762,2.9799,2.9807,2.9857,2.9877,2.9912,2.996,3.0022,3.0062,3.0122,3.0224,3.0236,3.0269,3.0279,3.0287,3.0297,3.0352,3.0367,3.0209,3.0209,3.0209,0,0,2.9541,2.9583,2.9622,2.9711,2.9749,2.9814,2.9779,2.9849,2.9897,2.9887,2.9974,3.0002,3.0057,3.0154,3.0198,3.0179,3.0343,3.0297,3.0303,3.0308,3.0361,3.0376,3.0389,3.0214,3.0213,3.0212,0,0,2.964,2.9679,2.9753,2.9793,2.9852,2.9873,2.9891,2.9948,2.9966,3.0054,3.0049,3.0105,3.0212,3.0251,3.0285,3.0399,3.0391,3.0418,3.0471,3.0525,3.0537,3.0548,3.0588,3.0603,3.0428,3.0428,3.0428,0,2.9677,2.9775,2.9792,2.9863,2.9902,2.9898,2.9973,3.001,3.0085,3.0111,3.0089,3.0223,3.0259,3.0365,3.0393,3.0421,3.0441,3.0411,3.0534,3.0546,3.0556,3.0594,3.0609,3.0431,3.043,3.043,3.043,0,2.9817,2.9886,2.9939,3.0012,3.0057,3.013,3.0157,3.02,3.0205,3.0228,3.0318,3.0362,3.043,3.0456,3.0461,3.0562,3.0549,3.0531,3.0491,3.0574,3.061,3.0625,3.0435,3.0434,3.0433,3.0432,0,0,2.9933,3.0016,3.0035,3.0068,3.0133,3.0186,3.0258,3.0326,3.0362,3.0414,3.0475,3.0565,3.0549,3.0588,3.0597,3.0645,3.0732,3.0621,3.0622,3.0639,3.0845,3.0858,3.0874,3.0727,3.073,3.0732,3.084,0,3.0038,3.0167,3.0184,3.0298,3.0361,3.0358,3.0421,3.0467,3.0491,3.0548,3.0574,3.0637,3.0612,3.0635,3.0682,3.0711,3.0773,3.0704,3.0782,3.0785,3.0767,3.0893,3.0907,3.1006,3.0855,3.0857,3.0859,0,3.0176,3.0233,3.0353,3.041,3.0437,3.0493,3.0556,3.0611,3.0663,3.0677,3.072,3.0724,3.0798,3.0756,3.0858,3.081,3.0844,3.0863,3.0867,3.0873,3.0826,3.0902,3.1039,3.1053,3.0882,3.088,3.0878,0,3.0247,3.0354,3.0439,3.0468,3.0536,3.0576,3.0606,3.0656,3.0695,3.0751,3.0776,3.0839,3.0874,3.0922,3.0942,3.091,3.1042,3.1002,3.1055,3.1054,3.1081,3.1079,3.1224,3.1105,3.1105,3.1105,3.1104,0,3.0361,3.0434,3.0472,3.0525,3.0607,3.0626,3.0707,3.0735,3.078,3.0837,3.0839,3.0892,3.0916,3.0973,3.099,3.1071,3.1087,3.1099,3.1102,3.1098,3.1096,3.1119,3.1112,3.1109,3.1108,3.1107,3.1106,0,3.0453,3.0482,3.0575,3.0633,3.0649,3.0707,3.0755,3.0806,3.083,3.0902,3.0921,3.0958,3.1025,3.1051,3.1133,3.1144,3.1237,3.1235,3.122,3.122,3.1271,3.1265,3.1434,3.1456,3.1324,3.1326,3.1327,0,3.0523,3.058,3.0644,3.0683,3.0715,3.0778,3.0818,3.084,3.0882,3.0946,3.0989,3.1057,3.1111,3.1219,3.1253,3.1315,3.1314,3.1369,3.1323,3.1318,3.1314,3.1309,3.1315,3.1377,3.1378,3.1379,3.138,0,3.0644,3.0656,3.0715,3.0779,3.0828,3.088,3.093,3.0961,3.0991,3.1038,3.1107,3.115,3.1235,3.1301,3.1366,3.1395,3.1393,3.1395,3.141,3.1405,3.1394,3.14,3.1241,3.139,3.1389,3.1388,3.1388,3.1388,3.0727,3.0777,3.083,3.0895,3.0936,3.0982,3.1033,3.1064,3.1122,3.1193,3.1203,3.1277,3.1328,3.1414,3.1447,3.1505,3.149,3.1512,3.1518,3.1523,3.1526,3.1386,3.1517,3.1517,3.1516,3.1516,3.1516,0,3.0846,3.0881,3.0941,3.1012,3.1063,3.1058,3.1113,3.1156,3.1222,3.127,3.1325,3.1404,3.1469,3.1509,3.1574,3.1612,3.1612,3.1628,3.1625,3.1632,3.1536,3.1516,3.1627,3.1627,3.1627,3.1627,3.1627,3.1627,3.0915,3.0999,3.1017,3.112,3.1154,3.1228,3.126,3.1303,3.1341,3.143,3.1485,3.1511,3.1555,3.1623,3.1682,3.1692,3.1715,3.1732,3.1741,3.165,3.1638,3.1627,3.1608,3.1738,3.1738,3.1832,3.1832,3.1833]}]]